Paso Robles, CA

7:13 AM PDT on September 20, 2017 (GMT -0700)
Paso Robles Municipal

Weather History for KPRB - March, 2014

Change the Weather History Date:

Thursday, March 6, 2014

  Actual Average Record
Temperature  
Mean Temperature 63 °F 52 °F  
Max Temperature 73 °F 65 °F 84 °F (1972)
Min Temperature 52 °F 40 °F 23 °F (1971)
Degree Days  
Heating Degree Days 2 13  
Month to date heating degree days 43 78  
Since 1 July heating degree days 1748 2171  
Cooling Degree Days 0 0  
Month to date cooling degree days 0 0  
Year to date cooling degree days 0 0  
Growing Degree Days 14 (Base 50)    
Moisture  
Dew Point 49 °F    
Average Humidity 55    
Maximum Humidity 93    
Minimum Humidity 17    
Precipitation  
Precipitation 0.00 in 0.10 in 1.06 in (1952)
Month to date precipitation 0.77 0.59  
Year to date precipitation 3.43 5.93  
Since 1 July precipitation 3.89  
Sea Level Pressure  
Sea Level Pressure 30.10 in    
Wind  
Wind Speed 11 mph (NW)    
Max Wind Speed 24 mph    
Max Gust Speed 29 mph    
Visibility 10 miles    
Events      
T = Trace of Precipitation, MM = Missing Value Source: NWS Daily Summary

Daily Weather History Graph

Daily Weather History Graph

Search for Another Location

Airport or City:

Trip Planner

Search our weather history database for the weather conditions in past years. The results will help you decide how hot, cold, wet, or windy it might be!

Date:

Astronomy

Mar. 06, 2014 Rise Set
Actual Time 6:25 AM PST 6:02 PM PST
Civil Twilight 6:00 AM PST 6:27 PM PST
Nautical Twilight 5:30 AM PST 6:57 PM PST
Astronomical Twilight 5:01 AM PST 7:27 PM PST
Moon 9:48 AM PST (3/6) No Moon Set
Length of Visible Light 12h 27m
Length of Day
11h 36m
Waxing Crescent, 33% of the Moon is Illuminated
Mar 6
Waxing Crescent
Mar 8
First Quarter
Mar 16
Full
Mar 23
Last Quarter
Mar 30
New

Hourly Weather History & Observations

Time (PST) Temp. Dew Point Humidity Pressure Visibility Wind Dir Wind Speed Gust Speed Precip Events Conditions
12:53 AM 55.0 °F 51.1 °F 86% 30.10 in 10.0 mi ESE 4.6 mph - N/A   Mostly Cloudy
1:53 AM 55.0 °F 51.1 °F 86% 30.09 in 10.0 mi SE 4.6 mph - N/A   Overcast
2:53 AM 55.0 °F 51.1 °F 86% 30.08 in 10.0 mi Calm Calm - N/A   Overcast
3:53 AM 54.0 °F 51.1 °F 90% 30.06 in 10.0 mi ESE 3.5 mph - N/A   Scattered Clouds
4:53 AM 54.0 °F 52.0 °F 93% 30.07 in 10.0 mi ESE 3.5 mph - N/A   Mostly Cloudy
5:53 AM 55.0 °F 52.0 °F 89% 30.09 in 10.0 mi Calm Calm - N/A   Overcast
6:53 AM 55.0 °F 52.0 °F 89% 30.10 in 10.0 mi Calm Calm - N/A   Mostly Cloudy
7:09 AM 55.0 °F 52.0 °F 89% 30.12 in 10.0 mi NW 9.2 mph - N/A   Overcast
7:18 AM 55.9 °F 52.0 °F 87% 30.12 in 10.0 mi NW 9.2 mph - N/A   Overcast
7:53 AM 57.9 °F 54.0 °F 87% 30.12 in 10.0 mi NW 10.4 mph - N/A   Overcast
8:02 AM 57.9 °F 54.0 °F 87% 30.12 in 10.0 mi NW 8.1 mph - N/A   Overcast
8:15 AM 57.9 °F 55.0 °F 90% 30.13 in 10.0 mi NW 10.4 mph - N/A   Overcast
8:33 AM 57.9 °F 55.0 °F 90% 30.13 in 10.0 mi NW 6.9 mph - N/A   Overcast
8:53 AM 60.1 °F 55.0 °F 83% 30.12 in 10.0 mi NNW 5.8 mph - N/A   Mostly Cloudy
9:01 AM 60.1 °F 55.0 °F 83% 30.13 in 10.0 mi NW 5.8 mph - N/A   Scattered Clouds
9:53 AM 62.1 °F 55.0 °F 78% 30.14 in 10.0 mi NW 10.4 mph - N/A   Clear
10:53 AM 66.0 °F 52.0 °F 60% 30.12 in 10.0 mi NNW 6.9 mph - N/A   Clear
11:53 AM 69.1 °F 54.0 °F 58% 30.10 in 10.0 mi NW 8.1 mph - N/A   Clear
12:53 PM 71.1 °F 50.0 °F 47% 30.07 in 10.0 mi NW 11.5 mph - N/A   Clear
1:53 PM 73.0 °F 27.0 °F 18% 30.06 in 10.0 mi NNW 15.0 mph - N/A   Clear
2:53 PM 73.0 °F 33.1 °F 23% 30.04 in 10.0 mi NNW 16.1 mph 20.7 mph N/A   Clear
3:53 PM 71.1 °F 39.0 °F 31% 30.04 in 10.0 mi NNW 18.4 mph - N/A   Clear
4:53 PM 68.0 °F 37.9 °F 33% 30.04 in 10.0 mi NW 18.4 mph 28.8 mph N/A   Clear
5:53 PM 63.0 °F 41.0 °F 45% 30.06 in 10.0 mi NW 13.8 mph - N/A   Clear
6:53 PM 60.1 °F 46.0 °F 60% 30.08 in 10.0 mi NW 18.4 mph - N/A   Clear
7:53 PM 57.9 °F 46.0 °F 65% 30.09 in 10.0 mi NNW 16.1 mph - N/A   Clear
8:53 PM 57.0 °F 46.9 °F 69% 30.11 in 10.0 mi NNW 20.7 mph - N/A   Clear
9:53 PM 55.0 °F 46.9 °F 74% 30.12 in 10.0 mi NW 20.7 mph - N/A   Clear
10:53 PM 54.0 °F 48.0 °F 80% 30.12 in 10.0 mi NNW 17.3 mph - N/A   Clear
11:53 PM 52.0 °F 48.9 °F 89% 30.12 in 10.0 mi NNW 8.1 mph - N/A   Clear